星链-11575 (STARLINK-11575)

导读

STARLINK-11575是美国太空探索技术公司(SpaceX)于2025年3月18日发射的星链(Starlink)系列卫星,属于Starlink V1.0平台,运行于近地点约355公里、远地点约357公里的近地轨道,轨道倾角43.001°,周期约91.67分钟。 作为星链全球卫星互联网星座的组成部分,它将为全球尤其是地面网络难以覆盖的偏远地区、海洋、空域提供高速低延迟互联网服务,支持民用与应急通信需求。

基本信息
目录编号:
63308
目录名称:
STARLINK-11575
国际标识:
2025-057B
轨道中心:
EARTH
卫星名称:
星链-11575
卫星全名:
星链-11575 (STARLINK-11575)
卫星状态:
在轨 (已飞行453 天)
发射日期:
2025-03-18 UTC
国别 :
美国 (US)
星等 :
--
轨道信息
数据来源 国际轨道数据
星历时间: 2026-06-14T17:03:55+0800
7小时前
查看轨道信息
半长轴: 6733.946km
偏心率: 0.0002979
轨道倾角: 43.002°
近地点辐角 296.848°
升交点赤经 41.776°
平近点角 63.208°
近地点: 353.802km
远地点: 357.816km
周期: 91.657分钟
每日圈数: 15.710804
详细信息
固有亮度:
5
最大亮度:
2.5
卫星平台:
Starlink V1.0
覆盖范围:
全球
运营商:
太空探索技术公司
运营商所在国:
美国
制造商(研发单位):
太空探索技术公司
制造商所在国:
美国
使用方式:
暂无
卫星简介
Starlink 计划是 SpaceX 推出的全球卫星互联网项目,通过发射低轨道卫星,为全球尤其是偏远地区提供高速、低延迟的互联网服务。自 2019 年起,Starlink 已部署数千颗卫星,旨在缩小全球数字鸿沟,推动互联网普及。该项目还为军事、航空等行业提供通信支持,带来广泛经济效益。
2D轨道图
3D轨道图
轨道高度分析图
轨道倾角分析图
轨道综合分析图
查看轨道综合分析图